Philadelphia, PA

2:09 PM EST on February 22, 2017 (GMT -0500)
Northeast Philadelphia

Weather History for KPNE - February, 2012

Change the Weather History Date:

Wednesday, February 15, 2012

  Actual Average Record
Temperature  
Mean Temperature 40 °F -  
Max Temperature 46 °F 41 °F 57 °F (2005)
Min Temperature 33 °F 25 °F 7 °F (2015)
Degree Days  
Heating Degree Days 24    
Moisture  
Dew Point 33 °F    
Average Humidity 71    
Maximum Humidity 83    
Minimum Humidity 56    
Precipitation  
Precipitation 0.00 in - - ()
Sea Level Pressure  
Sea Level Pressure 30.20 in    
Wind  
Wind Speed 5 mph (NNW)    
Max Wind Speed 12 mph    
Max Gust Speed -    
Visibility 10 miles    
Events Rain    
Averages and records for this station are not official NWS values.
T = Trace of Precipitation, MM = Missing Value Source: NWS Daily Summary

Daily Weather History Graph

Daily Weather History Graph

Search for Another Location

Airport or City:

Trip Planner

Search our weather history database for the weather conditions in past years. The results will help you decide how hot, cold, wet, or windy it might be!

Date:

Astronomy

Feb. 15, 2012 Rise Set
Actual Time 6:53 AM EST 5:35 PM EST
Civil Twilight 6:25 AM EST 6:03 PM EST
Nautical Twilight 5:54 AM EST 6:34 PM EST
Astronomical Twilight 5:22 AM EST 7:06 PM EST
Moon 1:44 AM EST (2/15) 11:28 AM EST (2/15)
Length of Visible Light 11h 37m
Length of Day
10h 41m
Last Quarter, 39% of the Moon is Illuminated
Feb 15
Last Quarter
Feb 21
New
Feb 29
First Quarter
Mar 8
Full
Mar 14
Last Quarter

Hourly Weather History & Observations

Time (EST) Temp. Windchill Dew Point Humidity Pressure Visibility Wind Dir Wind Speed Gust Speed Precip Events Conditions
12:54 AM 42.1 °F - 34.0 °F 73% 30.06 in 10.0 mi Calm Calm - N/A   Overcast
1:54 AM 41.0 °F 38.0 °F 34.0 °F 76% 30.07 in 10.0 mi NNE 4.6 mph - N/A   Overcast
2:54 AM 41.0 °F 38.0 °F 34.0 °F 76% 30.06 in 10.0 mi NE 4.6 mph - 0.00 in   Overcast
3:54 AM 41.0 °F 37.1 °F 35.1 °F 79% 30.07 in 10.0 mi NE 5.8 mph - 0.00 in   Overcast
4:54 AM 39.9 °F 37.8 °F 35.1 °F 83% 30.09 in 10.0 mi North 3.5 mph - N/A   Overcast
5:54 AM 39.9 °F 36.7 °F 34.0 °F 79% 30.11 in 10.0 mi NNW 4.6 mph - N/A   Overcast
7:54 AM 39.9 °F 35.1 °F 34.0 °F 79% 30.16 in 9.0 mi North 6.9 mph - N/A   Overcast
8:54 AM 41.0 °F 35.2 °F 35.1 °F 79% 30.18 in 9.0 mi North 9.2 mph - N/A   Overcast
9:09 AM 41.0 °F 37.1 °F 35.6 °F 81% 30.19 in 9.0 mi North 5.8 mph - N/A   Overcast
9:54 AM 42.1 °F 39.2 °F 35.1 °F 76% 30.20 in 9.0 mi NNW 4.6 mph - 0.00 in Rain Light Rain
10:09 AM 42.8 °F 37.5 °F 35.6 °F 76% 30.20 in 9.0 mi NW 9.2 mph - 0.00 in   Overcast
10:54 AM 42.1 °F 36.1 °F 35.1 °F 76% 30.22 in 9.0 mi NNW 10.4 mph - 0.00 in   Overcast
11:54 AM 43.0 °F 37.2 °F 35.1 °F 74% 30.22 in 10.0 mi NNW 10.4 mph - N/A   Overcast
12:54 PM 44.1 °F 38.6 °F 34.0 °F 68% 30.22 in 10.0 mi NW 10.4 mph - N/A   Overcast
1:54 PM 46.0 °F 40.6 °F 34.0 °F 63% 30.22 in 10.0 mi North 11.5 mph - N/A   Overcast
2:54 PM 46.9 °F - 34.0 °F 61% 30.21 in 10.0 mi North 9.2 mph - N/A   Mostly Cloudy
3:54 PM 46.4 °F 41.5 °F 32.0 °F 57% 30.22 in 10.0 mi NNW 10.4 mph - N/A   Overcast
4:54 PM 46.0 °F 41.4 °F 30.9 °F 56% 30.24 in 10.0 mi NNW 9.2 mph - N/A   Overcast
5:54 PM 45.0 °F 41.2 °F 32.0 °F 60% 30.27 in 10.0 mi NNW 6.9 mph - N/A   Overcast
6:54 PM 44.1 °F 41.5 °F 30.0 °F 58% 30.29 in 10.0 mi WNW 4.6 mph - N/A   Overcast
7:54 PM 42.1 °F 39.2 °F 30.0 °F 62% 30.30 in 10.0 mi NW 4.6 mph - N/A   Clear
8:54 PM 39.9 °F 36.7 °F 28.9 °F 65% 30.30 in 10.0 mi NW 4.6 mph - N/A   Clear
9:54 PM 37.9 °F 34.4 °F 28.9 °F 70% 30.31 in 10.0 mi NNW 4.6 mph - N/A   Clear
10:54 PM 35.1 °F 30.1 °F 28.0 °F 76% 30.30 in 10.0 mi North 5.8 mph - N/A   Clear
11:54 PM 33.1 °F 28.7 °F 27.0 °F 78% 30.31 in 10.0 mi West 4.6 mph - N/A   Clear